User: anonymous   Login
Location: Nantong Television Tower
(32.0188°N, 120.8512°E)
Time: 22:46:57
(UTC+08:00)
Language:

ATLAS 3B CENTAUR R/B - Orbit

View from above orbital plane
View from above orbital plane
View from above satellite
View from above satellite

Ground track
Ground track

The orbit data is extracted from the following two-line orbital elements,

1 28118U 03057B   17269.18165071  .00080538  00000-0  12209-2 0  9999
2 28118  28.1171 221.1851 3000260 340.8862   9.9272  9.47318364299198
Epoch (UTC): 26 September 2017 04:21:34
Eccentricity: 0.3000260
inclination: 28.1171°
perigee height: 226 km
apogee height: 5887 km
right ascension of ascending node: 221.1851°
argument of perigee: 340.8862°
revolutions per day: 9.47318364
mean anomaly at epoch: 9.9272°
orbit number at epoch: 29919

The dashed part of the orbit path shows where the satellite is in the earth's shadow,  

DLR